GW3708 Weather Reports


time (UTC)temp
C
wind
direction
speed
KPH
gust
KPH
rain 1hr
cm
rain 24hr
cm
rain mn
cm
humidity
%
barometer
mb
20260504235505 12 228 4.8 11.3 0.00 0.00 0.00 77 1010.6
20260504235006 12 239 6.4 9.7 0.00 0.00 0.00 77 1010.5
20260504234526 12 244 6.4 11.3 0.00 0.00 0.00 77 1010.4
20260504234008 12 246 6.4 11.3 0.00 0.00 0.00 77 1010.4
20260504233507 12 241 6.4 12.9 0.00 0.00 0.00 76 1010.4
20260504233022 12 251 6.4 12.9 0.00 0.00 0.00 76 1010.3
20260504232507 13 243 6.4 12.9 0.00 0.00 0.00 75 1010.4
20260504232010 13 252 6.4 12.9 0.00 0.00 0.00 75 1010.3
20260504231538 13 225 6.4 14.5 0.00 0.00 0.00 74 1010.3
20260504231007 13 238 6.4 14.5 0.00 0.00 0.00 74 1010.3
20260504230507 13 243 8.0 12.9 0.00 0.00 0.00 73 1010.3
20260504230025 13 240 6.4 14.5 0.00 0.00 0.00 73 1010.4
20260504225509 13 236 8.0 14.5 0.00 0.00 0.00 72 1010.3
20260504225006 13 231 8.0 14.5 0.00 0.00 0.00 71 1010.4
20260504224512 13 245 8.0 14.5 0.00 0.00 0.00 71 1010.3
20260504224002 13 246 9.7 14.5 0.00 0.00 0.00 70 1010.4
20260504223503 13 240 8.0 14.5 0.00 0.00 0.00 70 1010.4
20260504223003 13 245 9.7 14.5 0.00 0.00 0.00 70 1010.4
20260504222505 13 233 8.0 14.5 0.00 0.00 0.00 70 1010.4
20260504222002 14 246 8.0 14.5 0.00 0.00 0.00 69 1010.4
20260504221504 14 235 8.0 16.1 0.00 0.00 0.00 69 1010.4
20260504221004 14 239 9.7 16.1 0.00 0.00 0.00 68 1010.5
20260504220502 14 216 8.0 16.1 0.00 0.00 0.00 68 1010.6
20260504220006 14 230 8.0 14.5 0.00 0.00 0.00 67 1010.5
20260504215503 14 240 8.0 14.5 0.00 0.00 0.00 67 1010.5
20260504215009 14 228 8.0 14.5 0.00 0.00 0.00 66 1010.4
20260504214516 14 245 9.7 17.7 0.00 0.00 0.00 65 1010.4
20260504214004 15 223 9.7 17.7 0.00 0.00 0.00 66 1010.3
20260504213509 15 236 8.0 14.5 0.00 0.00 0.00 66 1010.4
20260504213016 15 234 8.0 14.5 0.00 0.00 0.00 66 1010.3
20260504212502 15 238 9.7 16.1 0.00 0.00 0.00 66 1010.2
20260504212004 15 240 8.0 16.1 0.00 0.00 0.00 65 1010.2
20260504211502 15 221 8.0 14.5 0.00 0.00 0.00 63 1010.3
20260504211004 15 227 8.0 14.5 0.00 0.00 0.00 62 1010.3
20260504210503 15 207 6.4 14.5 0.00 0.00 0.00 62 1010.3
20260504210010 15 238 8.0 14.5 0.00 0.00 0.00 63 1010.4
20260504205504 15 243 8.0 12.9 0.00 0.00 0.00 63 1010.4
20260504205002 15 227 6.4 12.9 0.00 0.00 0.00 62 1010.4
20260504204515 16 230 8.0 12.9 0.00 0.00 0.00 62 1010.4
20260504204005 16 242 8.0 12.9 0.00 0.00 0.00 60 1010.3
20260504203503 16 223 8.0 14.5 0.00 0.00 0.00 60 1010.3
20260504203016 16 232 8.0 14.5 0.00 0.00 0.00 59 1010.3
20260504202507 16 246 8.0 12.9 0.00 0.00 0.00 57 1010.3
20260504202007 16 227 8.0 14.5 0.00 0.00 0.00 58 1010.3
20260504201519 16 227 8.0 14.5 0.00 0.00 0.00 57 1010.3
20260504201007 17 229 8.0 14.5 0.00 0.00 0.00 56 1010.3
20260504200503 17 227 8.0 14.5 0.00 0.00 0.00 56 1010.3
20260504200008 17 248 8.0 14.5 0.00 0.00 0.00 56 1010.4
20260504195504 17 229 6.4 12.9 0.00 0.00 0.00 56 1010.4
20260504195007 17 216 8.0 12.9 0.00 0.00 0.00 56 1010.5
20260504194509 17 234 8.0 11.3 0.00 0.00 0.00 57 1010.5
20260504194003 17 235 6.4 12.9 0.00 0.00 0.00 56 1010.5
20260504193503 17 255 8.0 12.9 0.00 0.00 0.00 57 1010.5
20260504193020 17 248 8.0 14.5 0.00 0.00 0.00 56 1010.6
20260504192506 17 227 8.0 14.5 0.00 0.00 0.00 55 1010.5
20260504192010 17 216 8.0 12.9 0.00 0.00 0.00 57 1010.6
20260504191518 17 226 8.0 12.9 0.00 0.00 0.00 56 1010.5
20260504191008 17 244 8.0 11.3 0.00 0.00 0.00 55 1010.6
20260504190507 17 234 6.4 12.9 0.00 0.00 0.00 56 1010.6
20260504190020 17 247 8.0 12.9 0.00 0.00 0.00 55 1010.7
20260504185503 17 250 8.0 14.5 0.00 0.00 0.00 55 1010.8
20260504185002 17 222 8.0 14.5 0.00 0.00 0.00 54 1010.8
20260504184506 17 241 6.4 12.9 0.00 0.00 0.00 55 1010.8
20260504184004 17 234 8.0 12.9 0.00 0.00 0.00 55 1010.9
20260504183503 17 264 8.0 12.9 0.00 0.00 0.00 54 1010.9
20260504183008 17 232 6.4 12.9 0.00 0.00 0.00 54 1011.0
20260504182502 18 226 6.4 11.3 0.00 0.00 0.00 54 1011.0
20260504182010 18 247 6.4 11.3 0.00 0.00 0.00 53 1011.1
20260504181514 18 217 8.0 11.3 0.00 0.00 0.00 53 1011.1
20260504181007 18 254 8.0 11.3 0.00 0.00 0.00 50 1011.1
20260504180509 17 221 8.0 12.9 0.00 0.00 0.00 52 1011.2
20260504180020 17 232 8.0 14.5 0.00 0.00 0.00 52 1011.2
20260504175507 17 218 8.0 14.5 0.00 0.00 0.00 52 1011.2
20260504175008 18 244 6.4 12.9 0.00 0.00 0.00 51 1011.2
20260504174523 18 242 8.0 14.5 0.00 0.00 0.00 51 1011.2
20260504174005 18 236 8.0 14.5 0.00 0.00 0.00 50 1011.2
20260504173503 18 255 8.0 12.9 0.00 0.00 0.00 48 1011.3
20260504173008 18 250 8.0 12.9 0.00 0.00 0.00 50 1011.3
20260504172503 18 244 8.0 12.9 0.00 0.00 0.00 48 1011.3
20260504172006 18 216 8.0 12.9 0.00 0.00 0.00 49 1011.4
20260504171532 18 221 6.4 11.3 0.00 0.00 0.00 48 1011.4
20260504171007 18 235 6.4 11.3 0.00 0.00 0.00 47 1011.5
20260504170506 18 249 6.4 11.3 0.00 0.00 0.00 47 1011.7
20260504151004 19 193 1.6 8.0 0.00 0.00 0.00 44 1012.7
20260504150503 19 268 4.8 8.0 0.00 0.00 0.00 38 1012.7
20260504141010 17 263 3.2 6.4 0.00 0.00 0.00 49 1012.9
20260504140508 17 236 1.6 6.4 0.00 0.00 0.00 47 1012.9
20260504130510 16 290 3.2 8.0 0.00 0.00 0.00 47 1013.5
20260504110509 10 254 1.6 4.8 0.00 0.00 0.00 63 1013.2
20260504100508 8 256 0.0 0.0 0.00 0.00 0.00 73 1013.1
20260504082003 7 250 0.0 0.0 0.00 0.00 0.00 75 1012.5
20260504081524 7 212 0.0 0.0 0.00 0.00 0.00 75 1012.4
20260504081007 7 212 0.0 0.0 0.00 0.00 0.00 76 1012.4
20260504080507 7 234 0.0 0.0 0.00 0.00 0.00 75 1012.4
20260504050512 6 234 0.0 0.0 0.00 0.00 0.00 72 1012.1
20260504045503 6 234 0.0 0.0 0.00 0.00 0.00 72 1012.1
20260504045006 6 234 0.0 0.0 0.00 0.00 0.00 72 1012.2
20260504044524 6 234 0.0 0.0 0.00 0.00 0.00 72 1012.2
20260504044006 6 234 0.0 0.0 0.00 0.00 0.00 71 1012.2
20260504043503 6 234 0.0 0.0 0.00 0.00 0.00 71 1012.1
20260504043004 6 234 0.0 0.0 0.00 0.00 0.00 71 1012.1
20260504042503 6 234 0.0 0.0 0.00 0.00 0.00 72 1012.1
20260504042003 6 234 0.0 0.0 0.00 0.00 0.00 73 1012.0
20260504041505 6 234 0.0 0.0 0.00 0.00 0.00 74 1012.0
20260504041003 6 234 0.0 0.0 0.00 0.00 0.00 74 1012.0
20260504040504 6 234 0.0 0.0 0.00 0.00 0.00 75 1012.0
20260504040009 6 234 0.0 0.0 0.00 0.00 0.00 76 1012.0
20260504035504 7 234 0.0 0.0 0.00 0.00 0.00 76 1012.0
20260504035004 7 234 0.0 0.0 0.00 0.00 0.00 76 1012.0
20260504034512 7 234 0.0 0.0 0.00 0.00 0.00 77 1011.9
20260504034006 7 234 0.0 0.0 0.00 0.00 0.00 76 1011.9
20260504033508 7 234 0.0 0.0 0.00 0.00 0.00 76 1011.8
20260504033021 7 234 0.0 0.0 0.00 0.00 0.00 76 1011.8
20260504032507 7 234 0.0 0.0 0.00 0.00 0.00 76 1011.8
20260504032005 7 234 0.0 0.0 0.00 0.00 0.00 76 1011.8
20260504031504 8 234 0.0 0.0 0.00 0.00 0.00 76 1011.8
20260504031003 8 234 0.0 0.0 0.00 0.00 0.00 75 1011.8
20260504030502 8 234 0.0 0.0 0.00 0.00 0.00 74 1011.7
20260504030004 8 234 0.0 0.0 0.00 0.00 0.00 74 1011.6
20260504025504 8 237 0.0 1.6 0.00 0.00 0.00 73 1011.7
20260504025004 8 237 0.0 3.2 0.00 0.00 0.00 73 1011.7
20260504024509 8 237 1.6 3.2 0.00 0.00 0.00 73 1011.6
20260504024004 8 237 1.6 3.2 0.00 0.00 0.00 73 1011.6
20260504023505 8 237 1.6 3.2 0.00 0.00 0.00 73 1011.6
20260504023016 8 237 1.6 3.2 0.00 0.00 0.00 73 1011.6
20260504022506 8 237 1.6 4.8 0.00 0.00 0.00 73 1011.7
20260504022005 8 225 3.2 4.8 0.00 0.00 0.00 74 1011.6
20260504021519 8 224 3.2 3.2 0.00 0.00 0.00 73 1011.5
20260504021006 8 275 0.0 0.0 0.00 0.00 0.00 73 1011.5
20260504020503 7 275 0.0 0.0 0.00 0.00 0.00 73 1011.5
20260504020007 7 275 0.0 0.0 0.00 0.00 0.00 73 1011.5
20260504015503 7 286 0.0 0.0 0.00 0.00 0.00 73 1011.5
20260504015004 7 292 0.0 0.0 0.00 0.00 0.00 73 1011.5
20260504014508 7 292 0.0 0.0 0.00 0.00 0.00 72 1011.4
20260504014002 7 292 0.0 0.0 0.00 0.00 0.00 71 1011.4
20260504013505 7 292 0.0 0.0 0.00 0.00 0.00 69 1011.3
20260504013012 7 292 0.0 0.0 0.00 0.00 0.00 69 1011.3
20260504012508 7 292 0.0 0.0 0.00 0.00 0.00 67 1011.3
20260504012011 7 292 0.0 0.0 0.00 0.00 0.00 65 1011.2
20260504011518 7 292 0.0 0.0 0.00 0.00 0.00 65 1011.1
20260504011005 7 292 0.0 0.0 0.00 0.00 0.00 63 1011.0
20260504010505 7 292 0.0 0.0 0.00 0.00 0.00 59 1010.9
20260504010022 7 292 0.0 0.0 0.00 0.00 0.00 57 1010.8
20260504005507 7 292 0.0 0.0 0.00 0.00 0.00 56 1010.8
20260504005003 8 292 0.0 0.0 0.00 0.00 0.00 55 1010.8
20260504004503 8 292 0.0 0.0 0.00 0.00 0.00 54 1010.8
20260504004006 8 292 0.0 0.0 0.00 0.00 0.00 53 1010.7
20260504003506 8 292 0.0 0.0 0.00 0.00 0.00 52 1010.6
20260504003008 8 292 0.0 0.0 0.00 0.00 0.00 53 1010.6
20260504002503 8 292 0.0 0.0 0.00 0.00 0.00 54 1010.5
20260504002006 8 292 0.0 0.0 0.00 0.00 0.00 55 1010.4
20260504001514 9 292 0.0 0.0 0.00 0.00 0.00 56 1010.3
20260504001006 9 292 0.0 0.0 0.00 0.00 0.00 56 1010.3
20260504000507 9 292 0.0 0.0 0.00 0.00 0.00 56 1010.3
20260504000018 10 292 0.0 0.0 0.00 0.00 0.00 57 1010.2